Weather History for Mustang Island A85A, TX

Change the Weather History Date:

Saturday, April 5, 2014

  Actual Average Record
Temperature  
Mean Temperature 70 °F -  
Max Temperature 71 °F - - ()
Min Temperature 68 °F - - ()
Cooling Degree Days 4    
Growing Degree Days 20 (Base 50)    
Moisture  
Dew Point 62 °F    
Average Humidity 78    
Maximum Humidity 100    
Minimum Humidity 57    
Precipitation  
Precipitation 0.00 in - - ()
Sea Level Pressure  
Sea Level Pressure 29.90 in    
Wind  
Wind Speed 16 mph (NE)    
Max Wind Speed 29 mph    
Max Gust Speed 30 mph    
Visibility 7 miles    
Events      
T = Trace of Precipitation, MM = Missing Value Source: NWS Daily Summary

Daily Weather History Graph

Daily Weather History Graph

Search for Another Location

Airport:

Trip Planner

Search our weather history database for the weather conditions in past years. The results will help you decide how hot, cold, wet, or windy it might be!

Date:

Astronomy

Apr. 05, 2014 Rise Set
Actual Time 7:10 AM CDT 7:44 PM CDT
Civil Twilight 6:47 AM CDT 8:08 PM CDT
Nautical Twilight 6:19 AM CDT 8:35 PM CDT
Astronomical Twilight 5:51 AM CDT 9:04 PM CDT
Moon 11:37 AM CDT (4/5) 12:37 AM CDT (4/5)
Length of Visible Light 13h 21m
Length of Day
12h 33m
Waxing Crescent, 34% of the Moon is Illuminated
Apr 5
Waxing Crescent
Apr 7
First Quarter
Apr 15
Full
Apr 22
Last Quarter
Apr 29
New

Hourly Weather History & Observations

Time (CDT) Temp. Dew Point Humidity Pressure Visibility Wind Dir Wind Speed Gust Speed Precip Events Conditions
12:15 AM 69.8 °F 59.0 °F 68% 30.00 in 10.0 mi NNE 12.7 mph - N/A   Overcast
12:35 AM 68.0 °F 59.0 °F 73% 30.00 in 10.0 mi NNE 11.5 mph - N/A   Overcast
12:55 AM 69.8 °F 57.2 °F 64% 29.99 in 10.0 mi NNE 15.0 mph - N/A   Overcast
1:15 AM 69.8 °F 55.4 °F 60% 29.98 in 10.0 mi NNE 13.8 mph - N/A   Overcast
1:35 AM 69.8 °F 55.4 °F 60% 29.97 in 10.0 mi NNE 15.0 mph 20.7 mph N/A   Overcast
1:55 AM 69.8 °F 55.4 °F 60% 29.96 in 10.0 mi NNE 17.3 mph - N/A   Overcast
2:15 AM 68.0 °F 55.4 °F 64% 29.96 in 10.0 mi NNE 19.6 mph - N/A   Overcast
2:35 AM 69.8 °F 55.4 °F 60% 29.95 in 10.0 mi NNE 17.3 mph 23.0 mph N/A   Overcast
2:55 AM 69.8 °F 55.4 °F 60% 29.94 in 10.0 mi NE 16.1 mph 26.5 mph N/A   Overcast
3:15 AM 71.6 °F 55.4 °F 57% 29.94 in 10.0 mi NE 19.6 mph 27.6 mph N/A   Overcast
3:35 AM 71.6 °F 55.4 °F 57% 29.94 in 10.0 mi NE 19.6 mph 26.5 mph N/A   Overcast
3:55 AM 69.8 °F 55.4 °F 60% 29.94 in 10.0 mi NE 16.1 mph 26.5 mph N/A   Overcast
4:15 AM 71.6 °F 55.4 °F 57% 29.94 in 10.0 mi NE 20.7 mph 27.6 mph N/A   Overcast
4:35 AM 69.8 °F 55.4 °F 60% 29.93 in 10.0 mi NE 17.3 mph 26.5 mph N/A   Overcast
4:55 AM 69.8 °F 55.4 °F 60% 29.93 in 10.0 mi NE 20.7 mph - N/A   Overcast
5:15 AM 68.0 °F 55.4 °F 64% 29.92 in 10.0 mi NNE 20.7 mph 28.8 mph N/A   Overcast
5:35 AM 68.0 °F 57.2 °F 68% 29.91 in 10.0 mi NNE 23.0 mph 29.9 mph N/A   Overcast
5:55 AM 68.0 °F 57.2 °F 68% 29.89 in 10.0 mi NNE 28.8 mph - N/A   Overcast
6:15 AM 69.8 °F 59.0 °F 68% 29.91 in 10.0 mi NE 17.3 mph 27.6 mph N/A   Overcast
6:35 AM 69.8 °F 59.0 °F 68% 29.92 in 10.0 mi NE 16.1 mph 26.5 mph N/A   Overcast
6:55 AM 69.8 °F 59.0 °F 68% 29.93 in 10.0 mi NE 18.4 mph 27.6 mph N/A   Overcast
7:15 AM 69.8 °F 59.0 °F 68% 29.93 in 9.0 mi NE 19.6 mph 27.6 mph N/A   Overcast
7:35 AM 69.8 °F 59.0 °F 68% 29.94 in 9.0 mi NE 17.3 mph 27.6 mph N/A   Overcast
7:55 AM 69.8 °F 59.0 °F 68% 29.94 in 9.0 mi NE 16.1 mph 24.2 mph N/A   Overcast
8:15 AM 69.8 °F 59.0 °F 68% 29.95 in 7.0 mi NE 15.0 mph 26.5 mph N/A   Overcast
8:35 AM 69.8 °F 59.0 °F 68% 29.94 in 7.0 mi NE 18.4 mph 24.2 mph N/A   Overcast
8:55 AM 68.0 °F 59.0 °F 73% 29.94 in 7.0 mi NE 16.1 mph 24.2 mph N/A   Overcast
9:15 AM 68.0 °F 59.0 °F 73% 29.95 in 9.0 mi NE 16.1 mph 25.3 mph N/A   Overcast
9:35 AM 68.0 °F 60.8 °F 78% 29.95 in 9.0 mi NE 17.3 mph 25.3 mph N/A   Overcast
9:55 AM 68.0 °F 60.8 °F 78% 29.96 in 9.0 mi NE 18.4 mph - N/A   Mostly Cloudy
10:15 AM 68.0 °F 60.8 °F 78% 29.96 in 9.0 mi NE 18.4 mph - N/A   Mostly Cloudy
10:35 AM 68.0 °F 60.8 °F 78% 29.96 in 9.0 mi NE 18.4 mph - N/A   Overcast
10:55 AM 68.0 °F 60.8 °F 78% 29.96 in 9.0 mi NE 18.4 mph - N/A   Overcast
11:15 AM 68.0 °F 60.8 °F 78% 29.96 in - NE 16.1 mph 23.0 mph N/A   Mostly Cloudy
11:35 AM 68.0 °F 60.8 °F 78% 29.95 in 9.0 mi NE 17.3 mph 25.3 mph N/A   Overcast
11:55 AM 68.0 °F 60.8 °F 78% 29.95 in 9.0 mi NE 15.0 mph 21.9 mph N/A   Mostly Cloudy
12:15 PM 68.0 °F 60.8 °F 78% 29.95 in 9.0 mi NE 15.0 mph 20.7 mph N/A   Overcast
12:35 PM 68.0 °F 60.8 °F 78% 29.94 in 9.0 mi ENE 18.4 mph - N/A   Overcast
12:55 PM 68.0 °F 60.8 °F 78% 29.93 in 9.0 mi NE 15.0 mph 21.9 mph N/A   Overcast
1:15 PM 68.0 °F 62.6 °F 83% 29.93 in 9.0 mi NE 16.1 mph 21.9 mph N/A   Overcast
1:35 PM 68.0 °F 62.6 °F 83% 29.92 in 9.0 mi NE 17.3 mph - N/A   Overcast
1:55 PM 68.0 °F 62.6 °F 83% 29.91 in 8.0 mi NE 15.0 mph 21.9 mph N/A   Overcast
2:15 PM 68.0 °F 62.6 °F 83% 29.89 in 8.0 mi ENE 19.6 mph 26.5 mph N/A   Overcast
2:35 PM 68.0 °F 62.6 °F 83% 29.89 in 8.0 mi NE 17.3 mph - N/A   Overcast
2:55 PM 68.0 °F 62.6 °F 83% 29.88 in 8.0 mi NE 15.0 mph 23.0 mph N/A   Overcast
3:15 PM 68.0 °F 62.6 °F 83% 29.87 in 8.0 mi ENE 16.1 mph - N/A   Overcast
3:35 PM 68.0 °F 64.4 °F 88% 29.86 in 5.0 mi ENE 19.6 mph - N/A   Overcast
3:55 PM 68.0 °F 62.6 °F 83% 29.84 in 6.0 mi ENE 19.6 mph 26.5 mph N/A   Haze
4:15 PM 68.0 °F 64.4 °F 88% 29.83 in 5.0 mi ENE 15.0 mph 24.2 mph N/A   Overcast
4:35 PM 68.0 °F 64.4 °F 88% 29.83 in 5.0 mi ENE 18.4 mph 25.3 mph N/A   Overcast
4:55 PM 68.0 °F 64.4 °F 88% 29.83 in 5.0 mi ENE 16.1 mph 23.0 mph N/A   Mostly Cloudy
5:15 PM 68.0 °F 64.4 °F 88% 29.83 in 5.0 mi ENE 18.4 mph 24.2 mph N/A   Mostly Cloudy
5:35 PM 69.8 °F 64.4 °F 83% 29.83 in 3.0 mi ENE 16.1 mph 24.2 mph N/A   Mostly Cloudy
5:55 PM 69.8 °F 66.2 °F 88% 29.83 in 3.0 mi ENE 17.3 mph 24.2 mph N/A   Haze
6:15 PM 69.8 °F 66.2 °F 88% 29.82 in 3.0 mi NE 13.8 mph 21.9 mph N/A   Haze
6:35 PM 69.8 °F 66.2 °F 88% 29.82 in 3.0 mi ENE 16.1 mph 25.3 mph N/A   Haze
6:55 PM 69.8 °F 66.2 °F 88% 29.82 in 2.5 mi ENE 12.7 mph 25.3 mph N/A   Haze
7:15 PM 69.8 °F 66.2 °F 88% 29.81 in 2.5 mi ENE 19.6 mph 25.3 mph N/A   Overcast
7:35 PM 69.8 °F 66.2 °F 88% 29.81 in 2.5 mi ENE 21.9 mph - N/A   Overcast
7:55 PM 69.8 °F 66.2 °F 88% 29.81 in 2.0 mi ENE 16.1 mph 27.6 mph N/A   Overcast
8:15 PM 68.0 °F 66.2 °F 94% 29.81 in 3.0 mi ENE 17.3 mph 26.5 mph N/A   Overcast
8:35 PM 69.8 °F 68.0 °F 94% 29.82 in 3.0 mi ENE 15.0 mph 23.0 mph N/A   Overcast
8:55 PM 69.8 °F 68.0 °F 94% 29.83 in 2.5 mi ENE 13.8 mph 21.9 mph N/A   Overcast
9:15 PM 69.8 °F 68.0 °F 94% 29.81 in 2.5 mi ENE 17.3 mph - N/A   Overcast
9:35 PM 68.0 °F 68.0 °F 100% 29.81 in 2.0 mi ENE 13.8 mph 21.9 mph N/A   Overcast
9:55 PM 68.0 °F 68.0 °F 100% 29.80 in 2.0 mi East 15.0 mph 20.7 mph N/A   Overcast
10:15 PM 69.8 °F 68.0 °F 94% 29.81 in 2.0 mi ENE 15.0 mph 21.9 mph N/A   Overcast
10:35 PM 69.8 °F 69.8 °F 100% 29.82 in 2.0 mi ENE 13.8 mph - N/A   Overcast
10:55 PM 71.6 °F 69.8 °F 94% 29.81 in 2.0 mi ENE 13.8 mph - N/A   Overcast
11:15 PM 71.6 °F 69.8 °F 94% 29.80 in 2.0 mi ENE 13.8 mph - N/A   Overcast
11:35 PM 71.6 °F 69.8 °F 94% 29.80 in 2.0 mi ENE 11.5 mph - N/A   Overcast
11:55 PM 71.6 °F 69.8 °F 94% 29.80 in 2.0 mi ENE 11.5 mph - N/A   Overcast